Location: Central Coast
(33.3208°S, 151.2336°E)
Time: 18:51:43
(UTC+11:00)

Vanguard 2 - Visible Passes

Search period start: 24 October 2017 00:00
Search period end: 03 November 2017 00:00
Orbit: 553 x 2939 km, 32.9° (Epoch: 23 October)

Date Brightness Start Highest point End Pass type
(mag) Time Alt. Az. Time Alt. Az. Time Alt. Az.
24 Oct 10.8 02:17:19 30° NE 02:17:19 30° NE 02:24:54 10° NE visible
24 Oct 10.7 04:18:51 25° NW 04:20:27 26° NW 04:33:21 10° NNE visible
24 Oct 8.0 19:52:51 10° NW 19:57:26 49° NNE 20:04:26 10° E visible
24 Oct 8.3 22:00:00 10° W 22:06:12 88° N 22:06:45 80° E visible
25 Oct 10.7 00:07:51 10° W 00:34:14 - ENE 00:08:11 12° W visible
25 Oct 10.9 02:35:46 26° NNE 02:35:46 26° NNE 02:42:28 10° NE visible
25 Oct 10.9 04:37:18 18° NW 04:38:41 18° NW 04:48:52 10° N visible
25 Oct 7.8 20:10:43 10° WNW 20:15:28 64° NNE 20:22:24 12° E visible
25 Oct 8.4 22:18:07 10° W 22:23:50 77° W 22:23:50 77° W visible
26 Oct11.000:52:38ENE00:52:38ENE00:25:15Wvisible
26 Oct 11.1 02:54:10 21° NNE 02:54:10 21° NNE 02:59:39 10° NNE visible
26 Oct 11.2 04:55:42 12° NW 04:56:59 12° NW 05:02:11 10° NNW visible
26 Oct 7.8 20:28:43 10° WNW 20:33:35 77° NNE 20:39:26 17° E visible
26 Oct 8.8 22:36:14 10° W 22:40:51 56° W 22:40:51 56° W visible
27 Oct11.201:10:57NE01:10:57NE00:42:16Wvisible
27 Oct 11.2 03:12:28 17° N 03:12:28 17° N 03:16:18 10° NNE visible
27 Oct 7.8 20:46:47 10° W 20:51:46 85° N 20:56:24 24° E visible
27 Oct 9.3 22:54:21 10° W 22:57:50 38° W 22:57:50 38° W visible
28 Oct 11.4 03:30:40 12° N 03:30:40 12° N 03:32:13 10° N visible
28 Oct 7.8 21:04:53 10° W 21:09:59 88° N 21:13:22 34° E visible
28 Oct 9.8 23:12:29 10° W 23:14:46 25° W 23:14:46 25° W visible
29 Oct 7.9 21:22:59 10° W 21:28:12 85° N 21:30:17 49° ENE visible
29 Oct 10.3 23:30:41 10° W 23:31:42 16° W 23:31:42 16° W visible
30 Oct 7.9 21:41:06 10° W 21:46:24 78° N 21:47:13 68° NE visible
31 Oct 7.4 19:51:40 10° W 19:55:56 86° N 20:02:03 10° E visible
31 Oct 8.1 21:59:13 10° W 22:04:08 65° NW 22:04:08 65° NW visible
01 Nov 7.4 20:09:46 10° W 20:14:06 86° N 20:19:39 13° E visible
01 Nov 8.7 22:17:22 10° W 22:21:03 42° WNW 22:21:03 42° WNW visible
02 Nov 7.4 20:27:53 10° W 20:32:17 80° N 20:36:35 20° ENE visible
02 Nov 9.4 22:35:36 10° W 22:38:00 26° WNW 22:38:00 26° WNW visible
